Meteo Giornale » Osservazioni meteo Stati Uniti (USA) » Montgomery Orange

ore: 01:54 - Osservazioni Meteo Montgomery Orange
Lat. 41° 30' N Lon. 74° 15' W Alt. 111 metri s.l.m.

coperto

21 °C

Coperto

Temp. 24 Ore

16 °C

24 °C

Nord

0 Km/h

Dew point 20 °C

Umidità 94 %

Visibilità  10 Km

Il sole sorge alle ore 06:23

Il sole tramonta alle ore 19:30

Data e Ora Cielo e Fenomeni T °C DP °C Um. % Pres. hPa Vis. km Vento km/h
Oggi h: 01:54 coperto Coperto 21 20 94 1017 10 N 0
Oggi h: 01:51 coperto Coperto 20 20 100 1017 10 N 0
Oggi h: 01:15 coperto Coperto 20 19 93 1017 10 N 0
Oggi h: 00:54 coperto_pioggia Pioggia 20 19 93 1017 10 N 0
Oggi h: 00:40 coperto_pioggia Pioggia 20 20 100 1017 10 S/SE 7.4
Oggi h: 00:22 coperto_pioggia Pioggia 20 20 100 1017 10 N 0
Oggi h: 00:09 coperto_pioggia Pioggia 20 20 100 1017 10 SE 7.4
Ieri h: 23:54 coperto_pioggia Pioggia 21 20 94 1017 10 N 5.5
Ieri h: 22:54 coperto Coperto 21 20 94 1018 10 N 0
Ieri h: 22:47 coperto Coperto 21 20 94 1018 10 N 0
Ieri h: 22:31 coperto Coperto 21 20 94 1018 10 N 0
Ieri h: 21:54 coperto Coperto 21 20 94 1018 10 N 0
Ieri h: 20:54 coperto Coperto 21 20 94 1018 10 N 0
Ieri h: 20:35 coperto Coperto 21 20 94 1018 10 N 0
Ieri h: 19:54 coperto Coperto 21 19 88 1018 10 N 0
Ieri h: 18:54 coperto Coperto 22 19 83 1018 10 N 5.5
Ieri h: 17:54 coperto Coperto 22 19 83 1018 10 S/SO 7.4
Ieri h: 16:54 coperto Coperto 22 19 83 1019 10 SO 11.1
Ieri h: 15:54 molto_nuvoloso Molto Nuvoloso 24 18 69 1018 10 S/SE 7.4
Ieri h: 14:54 molto_nuvoloso Molto Nuvoloso 23 18 73 1019 10 N 5.5
Ieri h: 13:54 coperto Coperto 23 17 68 1020 10 N 0
Ieri h: 12:54 coperto Coperto 23 18 73 1020 10 N 5.5
Ieri h: 11:54 coperto Coperto 23 17 68 1020 10 N 0
Ieri h: 11:33 coperto Coperto 23 17 68 1020 10 N 0
Ieri h: 10:54 molto_nuvoloso Molto Nuvoloso 22 17 73 1020 10 N 0
Ieri h: 09:54 nuvoloso Nuvoloso 22 17 73 1020 10 N 0
Ieri h: 08:54 nuvoloso Nuvoloso 20 17 82 1020 10 N 5.5
Ieri h: 07:54 sereno Sereno 18 17 93 1020 10 N 0
Ieri h: 06:54 sereno Sereno 16 16 100 1020 10 N 0
Ieri h: 05:54 sereno Sereno 16 16 100 1019 10 N 0
Ieri h: 04:54 sereno Sereno 16 16 100 1020 10 N 0
Ieri h: 03:54 sereno Sereno 16 15 93 1019 10 E/NE 13
Ieri h: 02:54 sereno Sereno 18 16 88 1019 10 N 0